星链-31387 (STARLINK-31387 )

导读 | 豆包AI

STARLINK-31387是美国太空探索技术公司SpaceX星链星座的卫星,于2024年4月5日发射入轨。星链项目旨在构建全球卫星互联网星座,为全球偏远地区等提供高速网络接入服务,该卫星加入后进一步拓展了星链星座的覆盖范围与服务能力,推动低轨卫星互联网的部署进程。

基本信息
目录编号:
59407
目录名称:
STARLINK-31387
国际标识:
2024-064K
轨道中心:
EARTH
卫星名称:
星链-31387
卫星全名:
星链-31387 (STARLINK-31387 )
卫星状态:
在轨 (已飞行709 天)
发射日期:
2024-04-05 UTC
国别 :
美国 (US)
星等 :
--
轨道信息
数据来源 国际轨道数据
星历时间: 2026-03-13T14:59:18+0800
2天前
查看轨道信息
半长轴: 6861.055km
偏心率: 0.0001642
轨道倾角: 43.007°
近地点辐角 256.000°
升交点赤经 36.087°
平近点角 104.067°
近地点: 481.791km
远地点: 484.045km
周期: 94.264分钟
每日圈数: 15.276239
详细信息
固有亮度:
5
最大亮度:
0.3
卫星平台:
Starlink v2.0 mini
覆盖范围:
全球
运营商:
太空探索技术公司
运营商所在国:
美国
制造商(研发单位):
太空探索技术公司
制造商所在国:
美国
使用方式:
暂无
卫星简介
星链(Starlink)计划是由太空探索技术公司(SpaceX)提出的一个巨型低轨卫星互联网星座项目,计划在2019年至2024年间在太空搭建由约1.2万颗卫星组成的“星链”网络,其中1584颗将部署在地球上空550千米处的近地轨道,并从2020年开始工作。该卫星仍在工作。
2D轨道图
3D轨道图
轨道高度分析图
轨道倾角分析图
轨道综合分析图
查看轨道综合分析图